Flag for Austria Weather past 2 weeks in Linz, Upper Austria, Austria

Now
52 °F

Partly cloudy.


Feels Like: 50 °F
Forecast: 49 / 60 °F
Wind: 6 mph from West

Location: Linz / Hoersching-Flughafen

Current Time: May 25, 2015 at 5:27:13 AM

Latest Report: May 25, 2015 at 4:50 AM


Visibility: 4 mi

Pressure: 30.01 "Hg

Humidity: 94%

Dew point: 50 °F

Location of LinzLocation

Historic Weather in Linz — Graph

°F

Linz temperature yesterday

Maximum temperature yesterday: 54 °F (at 12:20 PM)
Minimum temperature yesterday: 48 °F (at 5:20 AM)
Average temperature yesterday: 51 °F

Past Weeks' High & Low Weather Summary

 TemperatureHumidityPressure
High77 °F (May 12, 4:20 PM)100% (May 14, 4:50 AM)30.39 "Hg (May 14, 4:50 AM)
Low45 °F (May 11, 4:20 AM)27% (May 11, 2:50 PM)29.71 "Hg (May 19, 3:50 AM)
Average57 °F77%30.07 "Hg
* Reported May 10 3:20 AM — May 25 3:50 AM, Linz, Weather by CustomWeather, © 2015

Note: Actual official high and low records may vary slightly from our data, if they occured in-between our weather recording intervals... More about our weather records

Advertising

Linz weather history for previous 24 hours

 ConditionsComfort  
Time TempWeatherWind HumidityBarometerVisibility
3:50 AM
Mon, May 25
52 °FPartly cloudy.5 mph94%30.04 "Hg4 mi
3:20 AM52 °FPartly cloudy.3 mph94%30.04 "Hg4 mi
2:50 AM52 °FPassing clouds.5 mph94%30.04 "Hg4 mi
2:20 AM52 °FPassing clouds.5 mph94%30.04 "Hg4 mi
1:50 AM52 °FPassing clouds.3 mph94%30.07 "Hg4 mi
1:20 AM52 °FOvercast.6 mph94%30.07 "Hg4 mi
12:50 AM52 °FPassing clouds.6 mph94%30.07 "Hg4 mi
12:20 AM52 °FPassing clouds.5 mph94%30.07 "Hg4 mi
11:50 PM
Sun, May 24
52 °FPassing clouds.5 mph94%30.07 "Hg4 mi
11:20 PM52 °FPartly cloudy.5 mph94%30.07 "Hg4 mi
10:50 PM52 °FPassing clouds.3 mph94%30.07 "Hg6 mi
10:20 PM52 °FPartly cloudy.3 mph94%30.07 "Hg6 mi
9:50 PM52 °FPartly cloudy.2 mph94%30.07 "HgN/A
9:20 PM52 °FBroken clouds.3 mph94%30.07 "HgN/A
8:50 PM52 °FBroken clouds.3 mph94%30.07 "Hg5 mi
8:20 PM52 °FBroken clouds.5 mph94%30.09 "HgN/A
7:50 PM54 °FBroken clouds.3 mph88%30.09 "HgN/A
7:20 PM54 °FBroken clouds.5 mph94%30.07 "HgN/A
6:50 PM54 °FBroken clouds.6 mph94%30.07 "HgN/A
6:20 PM54 °FDrizzle. Broken clouds.6 mph88%30.07 "HgN/A
5:50 PM54 °FBroken clouds.5 mph94%30.07 "HgN/A
5:20 PM54 °FBroken clouds.6 mph88%30.07 "HgN/A
4:50 PM54 °FBroken clouds.7 mph88%30.09 "HgN/A
4:20 PM54 °FBroken clouds.7 mph94%30.09 "HgN/A
3:50 PM54 °FBroken clouds.8 mph94%30.09 "Hg5 mi
3:20 PM54 °FBroken clouds.8 mph88%30.09 "Hg5 mi
2:50 PM54 °FBroken clouds.7 mph94%30.09 "Hg5 mi
2:20 PM54 °FDrizzle. Fog.8 mph94%30.09 "Hg3 mi
1:50 PM54 °FBroken clouds.7 mph94%30.09 "Hg5 mi
1:20 PM52 °FDrizzle. Broken clouds.6 mph94%30.09 "Hg4 mi
12:50 PM54 °FDrizzle. Broken clouds.8 mph88%30.09 "Hg5 mi
12:20 PM54 °FDrizzle. Broken clouds.9 mph88%30.09 "Hg5 mi
11:50 AM52 °FDrizzle. Broken clouds.8 mph94%30.09 "Hg5 mi
11:20 AM52 °FDrizzle. Broken clouds.8 mph94%30.09 "Hg4 mi
10:50 AM52 °FDrizzle. Broken clouds.8 mph88%30.09 "Hg5 mi
10:20 AM52 °FLight rain. Broken clouds.8 mph94%30.09 "Hg6 mi
9:50 AM52 °FLight rain. Broken clouds.9 mph88%30.09 "Hg5 mi
9:20 AM50 °FBroken clouds.8 mph94%30.07 "Hg5 mi
8:50 AM50 °FLight rain. Broken clouds.9 mph94%30.07 "Hg4 mi
8:20 AM50 °FLight rain. Partly sunny.8 mph94%30.07 "Hg4 mi
7:50 AM50 °FLight rain. Partly sunny.9 mph94%30.07 "Hg4 mi
7:20 AM48 °FBroken clouds.9 mph100%30.07 "Hg4 mi
6:50 AM48 °FFog.10 mph100%30.07 "Hg3 mi
6:20 AM48 °FLight rain. Fog.8 mph100%30.07 "Hg3 mi
5:50 AM48 °FLight rain. Fog.9 mph100%30.07 "Hg1 mi
5:20 AM48 °FLight rain. Fog.10 mph100%30.07 "Hg1 mi
Weather by CustomWeather, © 2015

See weather overviewHow to use our weather pages